Location: Austin
(30.3000°N, 97.7500°W)
Time: 10:13:29
(UTC-05:00)

Cosmos 2278 Rocket - Pass Details

Date: 03 April 2024
Orbit: 839 x 847 km, 71.0° (Epoch: 21 April)

Event Time Altitude Azimuth Distance (km) Brightness Sun altitude
Rises 06:27:51 0° 351° (N) 3,410 5.4 -11.3°
Reaches altitude 10° 06:30:33 10° 1° (N) 2,472 4.8 -10.7°
Maximum altitude 06:35:39 33° 65° (ENE) 1,376 4.2 -9.7°
Drops below altitude 10° 06:40:42 10° 129° (SE) 2,459 5.2 -8.6°
Sets 06:43:22 0° 138° (SE) 3,389 5.8 -8.0°
